This is the latest recevied weather packets stored in our database for station/object WD4DAN-13. If no packets are shown the sender has not sent any weather packets the latest 10 day(s).
| Time | Temp. | Humidity | Pressure | Rain* | Wind** | Luminosity | Snow |
|---|---|---|---|---|---|---|---|
| 1778093501 | 30° C | 56% | - | 0 mm | - | - | - |
| 1778093199 | 30.56° C | 57% | - | 0 mm | - | - | - |
| 1778092896 | 30° C | 55% | - | 0 mm | - | - | - |
| 1778092592 | 30° C | 56% | - | 0 mm | - | - | - |
| 1778092288 | 30° C | 57% | - | 0 mm | - | - | - |
| 1778091986 | 30° C | 57% | - | 0 mm | - | - | - |
| 1778091682 | 30.56° C | 57% | - | 0 mm | - | - | - |
| 1778091381 | 29.44° C | 55% | - | 0 mm | - | - | - |
| 1778091078 | 29.44° C | 58% | - | 0 mm | - | - | - |
| 1778090774 | 30° C | 57% | - | 0 mm | - | - | - |
| 1778090471 | 28.89° C | 61% | - | 0 mm | - | - | - |
| 1778090167 | 29.44° C | 58% | - | 0 mm | - | - | - |
| 1778089863 | 29.44° C | 58% | - | 0 mm | - | - | - |
| 1778089562 | 29.44° C | 60% | - | 0 mm | - | - | - |
| 1778089258 | 28.89° C | 59% | - | 0 mm | - | - | - |
| 1778088956 | 28.89° C | 59% | - | 0 mm | - | - | - |
| 1778088652 | 29.44° C | 60% | - | 0 mm | - | - | - |
| 1778088350 | 28.33° C | 61% | - | 0 mm | - | - | - |
| 1778088046 | 28.89° C | 61% | - | 0 mm | - | - | - |
| 1778087743 | 29.44° C | 57% | - | 0 mm | - | - | - |
| 1778087441 | 28.89° C | 59% | - | 0 mm | - | - | - |
| 1778087138 | 28.89° C | 64% | - | 0 mm | - | - | - |
| 1778086830 | 27.78° C | 61% | - | 0 mm | - | - | - |
| 1778086528 | 28.33° C | 61% | - | 0 mm | - | - | - |
| 1778086224 | 28.89° C | 62% | - | 0 mm | - | - | - |
* Rain latest hour (hover to see other rain measurements)
** Current wind speed in m/s (hover to see current wind gust speed)